Location: Unspecified
(0.0000°N, 0.0000°E)
Time: 11:01:31
(UTC+00:00)

Explorer 11/Cluster Stage 4 - Pass Details

Date: 10 October 2020
Orbit: 467 x 1258 km, 28.8° (Epoch: 28 October)

Event Time Altitude Azimuth Distance (km) Brightness Sun altitude
Rises 15:22:52 0° 241° (WSW) 3,557 10.8 35.7°
Reaches altitude 10° 15:25:45 10° 242° (WSW) 2,474 10.3 35.0°
Maximum altitude 15:31:34 82° 328° (NNW) 721 7.1 33.5°
Drops below altitude 10° 15:36:08 10° 56° (ENE) 1,960 8.3 32.4°
Sets 15:38:13 0° 57° (ENE) 2,767 8.9 31.9°
